Other Public Products
Issued by NWS Charleston, SC

Current Version | Previous Version | Graphics & Text | Print | Product List | Glossary On
Versions: 1 2 3 4 5 6 7 8 9 10 11 12 13 14 15 16 17 18 19 20 21 22 23 24 25 26 27 28 29 30 31 32 33 34 35 36 37 38 39 40 41 42 43 44 45 46 47 48 49 50
183
FPUS82 KCHS 290727
OPUCHS

TEST...KCHS/KSAV Gateway Observations...TEST
National Weather Service Charleston SC
300 AM EDT SAT APR 29 2017

NOTE: "fair" indicates few or no clouds below 12,000 feet with no
significant weather and/or obstructions to visibility.

SCZ050-WAZ558-NCZ071-TXZ119-213-PAZ071-DCZ001-FLZ074-172-MI076-
NYZ176-178-MAZ016-IL014-TNZ027-NJZ106-GAZ044-MD014-290800-

...Gateway Observations for Charleston International...

CITY           SKY/WX    TMP DP  RH WIND       PRES   REMARKS
Chas Airport   MOCLDY    75  72  90 S12       30.13F
Seattle        MOCLDY    51  40  65 E6        30.32S
Charlotte      CLEAR     73  69  87 S12       30.10S
Dallas DFW     CLOUDY    79  72  79 S20G30    29.60S
Dallas Love    CLOUDY    79  71  76 S20       29.62S
Philladelphia  CLOUDY    67  62  84 CALM      30.01F
Wash National  CLOUDY    70  68  93 S3        30.00F
Baltimore      CLOUDY    69  68  96 CALM      30.00F
Miami          PTCLDY    80  71  74 E14       30.08S
Detroit        LGT RAIN  54  52  93 NW3       29.99S
Newark         CLOUDY    69  57  65 SW8       30.03R
Laguardia      CLOUDY    73  57  57 S5        30.01F
J F K          CLOUDY    64  56  75 S3        30.03F
Boston Logan   CLOUDY    63  58  83 S9        29.98F
Ft. Lauderdale PTCLDY    79  73  82 E17       30.07F
Chicago O`Hare CLOUDY    46  39  76 NE14      30.04R
Chicago Midway CLOUDY    47  41  80 NE13      30.04R
Houston Bush   MOCLDY    80  74  81 SE23      29.69F
Houston Hobby  CLOUDY    79  75  87 SE16G26   29.69F
Nashville      PTCLDY    77  67  71 S16       29.93R
Atlanta        MOCLDY    73  66  78 S7        30.08F

$$

GAZ044-118-TXZ119-213-NCZ071-DCZ001-MDZ014-506-PAZ021-071-NJZ106-
NYZ176-178-MAZ106-OHZ011-021-055-MIZ076-KYZ091-ILZ014-INZ047-
MNZ060-ONZ431-290800-

...Gateway Observations for Savannah International...

CITY           SKY/WX    TMP DP  RH WIND       PRES   REMARKS
Savannah Arpt  PTCLDY    76  70  82 S13       30.13F
Atlanta        MOCLDY    73  66  78 S7        30.08F
Charlotte      CLEAR     73  69  87 S12       30.10S
Dallas DFW     CLOUDY    79  72  79 S20G30    29.60S
Houston Bush   MOCLDY    80  74  81 SE23      29.69F
Wash National  CLOUDY    70  68  93 S3        30.00F
Wash Dulles    CLOUDY    66  63  90 CALM      30.01S
Baltimore      CLOUDY    69  68  96 CALM      30.00F
Philadelphia   CLOUDY    67  62  84 CALM      30.01F
Newark         CLOUDY    69  57  65 SW8       30.03R
Laguardia      CLOUDY    73  57  57 S5        30.01F
J F K          CLOUDY    64  56  75 S3        30.03F
Boston         CLOUDY    63  58  83 S9        29.98F
Pittsburg      CLOUDY    55  53  93 SE5       29.98F
Akron          CLOUDY    56  51  84 S7        29.98R
Cleveland      CLOUDY    57  53  86 N7        30.00S
Cincinnati     LGT RAIN  66  65  96 W9        29.95R FOG
Columbus       CLOUDY    57  57 100 NE3       29.95S
Detroit        LGT RAIN  54  52  93 NW3       29.99S
Chicago O`Hare CLOUDY    46  39  76 NE14      30.04R
Minneapolis    CLOUDY    43  27  53 NE9       30.18R
Indianapolis   TSTM      57  56  96 N10       29.90R FOG
Toronto Canada PTCLDY    55  45  67 W10       29.95F

$$




USA.gov is the U.S. government's official web portal to all federal, state and local government web resources and services.